Location: Limoges
(45.8500°N, 1.2500°E)
Time: 08:36:43
(UTC+02:00)

ISS - Visible Passes

Search period start: 19 May 2019 00:00
Search period end: 29 May 2019 00:00
Orbit: 408 x 410 km, 51.6° (Epoch: 19 May)

Date Brightness Start Highest point End Pass type
(mag) Time Alt. Az. Time Alt. Az. Time Alt. Az.
19 May -2.5 00:28:01 10° W 00:31:11 41° NNW 00:34:22 10° NE visible
19 May -1.7 02:05:20 10° WNW 02:08:17 29° N 02:11:14 10° ENE visible
19 May -3.2 03:42:00 10° WNW 03:45:17 57° NNE 03:48:34 10° ESE visible
19 May -2.8 05:18:52 10° W 05:21:41 26° SW 05:24:31 10° SSE visible
19 May -2.8 22:00:59 10° SSW 22:03:48 26° SE 22:06:37 10° E visible
19 May -3.2 23:36:57 10° WSW 23:40:12 57° NNW 23:43:29 10° ENE visible
20 May -1.7 01:14:16 10° WNW 01:17:12 29° N 01:20:09 10° ENE visible
20 May -2.5 02:51:07 10° NW 02:54:18 41° NNE 02:57:28 10° E visible
20 May -3.5 04:27:44 10° WNW 04:30:54 44° SW 04:34:04 10° SE visible
20 May -3.8 22:45:57 10° WSW 22:49:15 86° NNW 22:52:34 10° ENE visible
21 May -1.9 00:23:07 10° WNW 00:26:07 31° N 00:29:08 10° ENE visible
21 May -2.1 02:00:12 10° NW 02:03:15 33° NNE 02:04:27 25° NE visible
21 May -1.2 03:36:44 10° WNW 03:37:03 12° WNW 03:37:03 12° WNW visible
21 May -2.2 23:31:57 10° W 23:35:03 37° NNW 23:38:10 10° NE visible
22 May -1.8 01:09:12 10° WNW 01:12:10 29° N 01:14:10 16° ENE visible
22 May -1.6 02:45:48 10° WNW 02:46:51 19° WNW 02:46:51 19° WNW visible
22 May -2.7 22:40:47 10° W 22:44:00 48° NNW 22:47:13 10° ENE visible
23 May -1.7 00:18:07 10° WNW 00:21:04 28° N 00:24:00 10° ENE visible
23 May -2.3 01:54:53 10° WNW 01:57:10 36° NNW 01:57:10 36° NNW visible
23 May -1.8 23:26:58 10° WNW 23:29:56 29° N 23:32:54 10° ENE visible
24 May -2.4 01:03:56 10° NW 01:07:03 37° NNE 01:07:39 34° NE visible
24 May -2.0 22:35:46 10° WNW 22:38:48 33° NNW 22:41:52 10° NE visible
25 May -2.0 00:12:56 10° WNW 00:15:57 31° N 00:18:11 15° ENE visible
25 May -1.8 01:49:29 10° WNW 01:50:53 23° WNW 01:50:53 23° WNW visible
25 May -1.8 23:21:51 10° WNW 23:24:48 29° N 23:27:45 10° ENE visible
26 May -3.1 00:58:31 10° WNW 01:01:28 54° N 01:01:28 54° N visible
26 May -1.8 22:30:43 10° WNW 22:33:38 29° N 22:36:35 10° ENE visible
27 May -2.7 00:07:34 10° NW 00:10:44 42° NNE 00:12:04 27° ENE visible
27 May -1.2 01:44:10 10° WNW 01:44:47 14° WNW 01:44:47 14° WNW visible
27 May -2.2 23:16:33 10° NW 23:19:36 33° NNE 23:22:39 10° E visible
28 May -2.8 00:53:04 10° WNW 00:55:24 42° WNW 00:55:24 42° WNW visible
28 May -2.0 22:25:28 10° WNW 22:28:26 30° N 22:31:24 10° ENE visible
